Hourly Weather Corozal

Today, 16 April, Friday

Time Temperature Precipitation Wind Pressure Humidity
00:00 +26°C° 0 mm 3 mps 758 mmHg 89%
01:00 +26°C° 0 mm 2 mps 757 mmHg 89%
02:00 +25°C° 0 mm 2 mps 757 mmHg 89%
03:00 +25°C° 0 mm 2 mps 756 mmHg 89%
04:00 +25°C° 0 mm 2 mps 756 mmHg 89%
05:00 +25°C° 0 mm 2 mps 757 mmHg 89%
06:00 +25°C° 0 mm 2 mps 757 mmHg 89%
07:00 +27°C° 0 mm 3 mps 757 mmHg 79%
08:00 +29°C° 0 mm 4 mps 757 mmHg 70%
09:00 +32°C° 0 mm 4 mps 758 mmHg 60%
10:00 +33°C° 0 mm 4 mps 757 mmHg 57%
11:00 +34°C° 0 mm 4 mps 757 mmHg 54%
12:00 +35°C° 0 mm 4 mps 756 mmHg 52%
13:00 +35°C° 0 mm 4 mps 756 mmHg 50%
14:00 +35°C° 0 mm 5 mps 755 mmHg 48%
15:00 +36°C° 0 mm 5 mps 754 mmHg 46%
16:00 +34°C° 0 mm 4 mps 754 mmHg 54%
17:00 +32°C° 0 mm 4 mps 755 mmHg 62%
18:00 +29°C° 0 mm 3 mps 755 mmHg 70%
19:00 +28°C° 0 mm 3 mps 755 mmHg 75%
20:00 +27°C° 0 mm 3 mps 756 mmHg 80%
21:00 +26°C° 0 mm 3 mps 756 mmHg 86%
22:00 +26°C° 0 mm 3 mps 756 mmHg 86%
23:00 +27°C° 0 mm 3 mps 756 mmHg 86%

Tomorrow, 17 April, Saturday

Time Temperature Precipitation Wind Pressure Humidity
00:00 +27°C° 0 mm 4 mps 756 mmHg 87%
01:00 +27°C° 0 mm 3 mps 755 mmHg 88%
02:00 +27°C° 0 mm 3 mps 755 mmHg 89%
03:00 +27°C° 0 mm 3 mps 755 mmHg 90%
04:00 +28°C° 0 mm 3 mps 755 mmHg 85%
05:00 +28°C° 0 mm 3 mps 755 mmHg 80%
06:00 +29°C° 0 mm 4 mps 756 mmHg 76%
07:00 +30°C° 0 mm 4 mps 756 mmHg 73%
08:00 +30°C° 0 mm 4 mps 756 mmHg 70%
09:00 +32°C° 0 mm 4 mps 757 mmHg 67%
10:00 +34°C° 0 mm 4 mps 756 mmHg 60%
11:00 +36°C° 0 mm 5 mps 756 mmHg 54%
12:00 +37°C° 0 mm 5 mps 755 mmHg 47%
13:00 +37°C° 0 mm 5 mps 755 mmHg 49%
14:00 +37°C° 0 mm 5 mps 754 mmHg 50%
15:00 +36°C° 0 mm 4 mps 754 mmHg 51%
16:00 +34°C° 0 mm 4 mps 754 mmHg 59%
17:00 +33°C° 0 mm 4 mps 754 mmHg 67%
18:00 +30°C° 0 mm 4 mps 755 mmHg 74%
19:00 +29°C° 0 mm 4 mps 755 mmHg 79%
20:00 +29°C° 0 mm 4 mps 756 mmHg 83%
21:00 +28°C° 0 mm 3 mps 756 mmHg 88%
22:00 +28°C° 0 mm 3 mps 756 mmHg 88%
23:00 +28°C° 0 mm 3 mps 756 mmHg 88%

Day after tomorrow, 18 April, Sunday

Time Temperature Precipitation Wind Pressure Humidity
00:00 +28°C° 0 mm 3 mps 756 mmHg 88%
01:00 +28°C° 0 mm 3 mps 756 mmHg 88%
02:00 +28°C° 0 mm 3 mps 756 mmHg 88%
03:00 +28°C° 0 mm 2 mps 755 mmHg 88%
04:00 +28°C° 0.2 mm 2 mps 756 mmHg 89%
05:00 +28°C° 0.2 mm 2 mps 756 mmHg 90%
06:00 +28°C° 0.2 mm 2 mps 756 mmHg 91%
07:00 +29°C° 0.1 mm 2 mps 757 mmHg 83%
08:00 +31°C° 0.1 mm 3 mps 757 mmHg 75%
09:00 +33°C° 0.1 mm 3 mps 757 mmHg 67%
10:00 +35°C° 0.1 mm 3 mps 757 mmHg 60%
11:00 +37°C° 0.1 mm 3 mps 756 mmHg 53%
12:00 +38°C° 0.1 mm 3 mps 756 mmHg 45%
13:00 +38°C° 0.1 mm 3 mps 755 mmHg 48%
14:00 +37°C° 0.1 mm 4 mps 755 mmHg 50%
15:00 +36°C° 0.1 mm 4 mps 754 mmHg 53%
16:00 +34°C° 0.5 mm 4 mps 754 mmHg 62%
17:00 +31°C° 0.5 mm 3 mps 754 mmHg 72%
18:00 +29°C° 0.5 mm 3 mps 755 mmHg 81%
19:00 +28°C° 16.2 mm 3 mps 756 mmHg 87%
20:00 +26°C° 16.2 mm 2 mps 757 mmHg 92%
21:00 +25°C° 16.2 mm 2 mps 759 mmHg 98%
22:00 +25°C° 1 mm 2 mps 759 mmHg 97%
23:00 +25°C° 1 mm 2 mps 758 mmHg 97%

19 April, Monday

Time Temperature Precipitation Wind Pressure Humidity
00:00 +25°C° 1 mm 1 mps 758 mmHg 97%
01:00 +25°C° 0 mm 1 mps 758 mmHg 97%
02:00 +24°C° 0 mm 1 mps 757 mmHg 97%
03:00 +24°C° 0 mm 1 mps 757 mmHg 98%
04:00 +24°C° 0 mm 1 mps 757 mmHg 97%
05:00 +24°C° 0 mm 1 mps 758 mmHg 97%
06:00 +24°C° 0 mm 1 mps 758 mmHg 97%
07:00 +26°C° 0 mm 1 mps 759 mmHg 88%
08:00 +28°C° 0 mm 1 mps 759 mmHg 78%
09:00 +30°C° 0 mm 1 mps 759 mmHg 68%
10:00 +32°C° 0 mm 1 mps 758 mmHg 62%
11:00 +33°C° 0 mm 1 mps 758 mmHg 55%
12:00 +35°C° 0 mm 1 mps 757 mmHg 49%
13:00 +35°C° 0 mm 1 mps 757 mmHg 47%
14:00 +35°C° 0 mm 1 mps 756 mmHg 46%
15:00 +36°C° 0 mm 1 mps 755 mmHg 45%
16:00 +35°C° 0 mm 2 mps 755 mmHg 54%
17:00 +32°C° 0 mm 2 mps 756 mmHg 64%
18:00 +30°C° 0 mm 3 mps 756 mmHg 74%
19:00 +29°C° 0.3 mm 2 mps 757 mmHg 80%
20:00 +27°C° 0.3 mm 2 mps 757 mmHg 86%
21:00 +26°C° 0.3 mm 2 mps 758 mmHg 92%
22:00 +26°C° 0 mm 2 mps 758 mmHg 93%
23:00 +26°C° 0 mm 2 mps 758 mmHg 94%

20 April, Tuesday

Time Temperature Precipitation Wind Pressure Humidity
00:00 +26°C° 0 mm 2 mps 758 mmHg 95%
01:00 +26°C° 0.1 mm 1 mps 757 mmHg 95%
02:00 +26°C° 0.1 mm 1 mps 757 mmHg 95%
03:00 +23°C° 0.1 mm 0 mps 757 mmHg 96%
04:00 +25°C° 0 mm 1 mps 757 mmHg 95%
05:00 +25°C° 0 mm 1 mps 758 mmHg 95%
06:00 +25°C° 0 mm 1 mps 758 mmHg 95%
07:00 +28°C° 0 mm 1 mps 758 mmHg 85%
08:00 +30°C° 0 mm 2 mps 758 mmHg 75%
09:00 +32°C° 0 mm 2 mps 759 mmHg 65%
10:00 +34°C° 0 mm 3 mps 758 mmHg 60%
11:00 +35°C° 0 mm 3 mps 758 mmHg 55%
12:00 +37°C° 0 mm 3 mps 758 mmHg 49%
13:00 +36°C° 0 mm 3 mps 757 mmHg 52%
14:00 +35°C° 0 mm 4 mps 757 mmHg 55%
15:00 +34°C° 0 mm 4 mps 757 mmHg 57%
16:00 +33°C° 0 mm 4 mps 757 mmHg 65%
17:00 +30°C° 0 mm 4 mps 757 mmHg 72%
18:00 +29°C° 0 mm 4 mps 757 mmHg 79%
19:00 +29°C° 0 mm 4 mps 757 mmHg 82%
20:00 +28°C° 0 mm 4 mps 758 mmHg 84%
21:00 +28°C° 0 mm 4 mps 759 mmHg 86%
22:00 +28°C° 0 mm 3 mps 759 mmHg 88%
23:00 +28°C° 0 mm 2 mps 759 mmHg 89%

21 April, Wednesday

Time Temperature Precipitation Wind Pressure Humidity
00:00 +27°C° 0 mm 2 mps 759 mmHg 90%
01:00 +27°C° 0.3 mm 1 mps 759 mmHg 92%
02:00 +27°C° 0.3 mm 1 mps 759 mmHg 94%
03:00 +26°C° 0.3 mm 1 mps 758 mmHg 96%
04:00 +26°C° 0.3 mm 1 mps 759 mmHg 95%
05:00 +26°C° 0.3 mm 1 mps 759 mmHg 95%
06:00 +26°C° 0.3 mm 1 mps 759 mmHg 95%
07:00 +28°C° 0.7 mm 2 mps 760 mmHg 90%
08:00 +29°C° 0.7 mm 2 mps 760 mmHg 85%
09:00 +30°C° 0.7 mm 3 mps 760 mmHg 80%
10:00 +31°C° 0.7 mm 3 mps 760 mmHg 75%
11:00 +31°C° 0.7 mm 3 mps 760 mmHg 70%
12:00 +33°C° 0.7 mm 3 mps 760 mmHg 65%
13:00 +33°C° 0.1 mm 4 mps 759 mmHg 62%
14:00 +34°C° 0.1 mm 4 mps 759 mmHg 58%
15:00 +34°C° 0.1 mm 4 mps 758 mmHg 54%
16:00 +33°C° 0 mm 4 mps 759 mmHg 61%
17:00 +30°C° 0 mm 3 mps 759 mmHg 69%
18:00 +29°C° 0 mm 3 mps 759 mmHg 76%
19:00 +28°C° 0 mm 3 mps 759 mmHg 80%
20:00 +27°C° 0 mm 3 mps 760 mmHg 84%
21:00 +27°C° 0 mm 3 mps 760 mmHg 89%
22:00 +27°C° 0 mm 2 mps 760 mmHg 89%
23:00 +26°C° 0 mm 2 mps 760 mmHg 90%
Show more